Location: Alando
(42.3054°N, 9.2895°E)
Time: 15:38:36
(UTC+00:00)

Ariane Rocket - Pass Details

Date: 09 April 2020
Orbit: 761 x 769 km, 98.7° (Epoch: 28 May)

Event Time Altitude Azimuth Distance (km) Brightness Sun altitude
Rises 18:24:50 0° 153° (SSE) 3,217 5.8 -5.6°
Reaches altitude 10° 18:27:09 10° 150° (SSE) 2,294 5.0 -6.0°
Maximum altitude 18:32:06 58° 72° (ENE) 885 3.1 -6.9°
Drops below altitude 10° 18:37:04 10° 354° (N) 2,305 5.8 -7.8°
Sets 18:39:24 0° 351° (N) 3,234 6.6 -8.2°
